Location: Feigenhofen
(48.4939°N, 10.7793°E)
Time: 16:40:13
(UTC+00:00)

Cosmos 1943 Rocket - Pass Details

Date: 26 May 2022
Orbit: 810 x 845 km, 71.0° (Epoch: 28 June)

Event Time Altitude Azimuth Distance (km) Brightness Sun altitude
Rises 01:25:15 0° 329° (NNW) 3,413 5.7 -14.5°
Reaches altitude 10° 01:27:44 10° 325° (NW) 2,476 4.9 -14.3°
Maximum altitude 01:33:17 57° 249° (WSW) 992 2.3 -13.8°
Drops below altitude 10° 01:38:48 10° 172° (S) 2,457 4.2 -13.2°
Enters shadow 01:39:17 - 171° (S) 2,634 4.4 -13.2°
